SCP
-0 0 -0 -0 -0 -0 -0 -0 0 -0 0 0 0 0 0 0 0 0 0 0 0 0
-0 0 -0 -0 0 0 -0 -0 0 -0 0 0 0 0 0 0 0 0 0 0 0 0
0 -0 -0 -0 -0 -0 0 -0 -0 -0 -0 0 0 0 0 0 0 0 0 0 0 0
0 0 0 -0 -0 -0 0 0 0 -0 -0 -0 -0 0 0 0 0 0 0 0 0 0
0 0 0 0 0 -0 -0 -0 -0 0 0 0 0 -0 0 0 0 0 0 0 0 0
0 0 0 0 0 0 0 0 -0 -0 -0 -0 -0 0 0 0 0 0 0 0 0 0
0 0 0 0 0 0 0 0 0 0 0 0 0 0 0 0 0 0 0 0 0 0
0 0 0 0 0 0 0 0 0 0 0 0 0 0 0 0 0 0 0 0 0 0
0 0 0 0 0 0 0 0 0 0 0 0 0 0 0 0 0 0 0 0 0 0
0 0 0 0 0 0 0 0 0 0 0 0 0 0 0 0 0 0 0 0 0 0
0 0 0 0 0 0 0 0 0 0 0 0 0 0 0 0 0 0 0 0 0 0
0 0 0 0 0 0 0 0 0 0 0 0 0 0 0 0 0 0 0 0 0 0
0 0 0 0 0 0 0 0 0 0 0 0 0 0 0 0 0 0 0 0 0 0
0 0 0 0 0 0 0 0 0 0 0 0 0 0 0 0 0 0 0 0 0 0
Wind_Speed_500mb
32 27 32 32 32 32 35 39 38 34 66 72 74 75 70 67 68 79 87 82 76 79
34 33 30 27 29 26 29 36 33 39 44 83 83 77 86 93 88 76 79 83 82 76
34 33 28 22 16 17 20 23 26 28 47 64 76 84 84 90 95 96 86 91 87 79
30 32 29 25 19 14 17 23 29 28 30 34 41 53 78 87 84 95 93 98 100 95
20 28 27 25 25 23 19 21 29 32 32 34 34 48 50 61 70 79 92 98 97 100
17 18 22 21 22 23 23 22 23 28 30 33 36 45 52 56 58 59 60 74 80 86
14 11 16 18 17 16 15 18 20 22 25 28 30 36 42 48 54 60 63 65 70 71
20 18 18 16 17 15 14 13 15 19 22 24 28 34 42 48 52 57 62 67 71 74
18 19 21 23 23 24 25 27 24 24 27 26 35 44 45 49 53 56 61 66 69 72
13 15 20 23 25 27 29 30 31 34 36 38 44 51 53 54 55 58 62 66 69 72
13 10 13 15 16 17 19 23 25 29 31 33 45 55 57 56 54 57 67 74 74 70
16 14 12 12 8 6 5 5 5 7 12 19 24 35 45 48 47 52 58 64 66 71
22 20 19 19 18 19 17 16 14 12 11 8 10 13 13 13 14 21 25 27 31 36
30 28 29 26 25 24 25 23 23 23 24 26 25 23 15 11 5 3 0 4 10 18
Wind_Direction_500mb
194 189 200 207 218 226 222 224 236 206 206 202 197 194 202 210 218 218 222 224 225 230
194 194 195 201 210 223 231 228 221 236 235 217 208 210 206 205 207 214 225 230 230 235
191 193 199 203 205 208 210 214 217 217 217 221 208 214 213 216 216 213 220 227 232 239
190 188 190 199 200 195 205 208 210 213 209 210 216 216 214 220 225 223 226 232 232 239
182 187 188 190 193 204 204 206 212 216 219 219 231 223 224 225 234 234 231 238 242 243
174 181 184 182 194 209 215 210 210 212 217 215 219 225 232 232 239 242 246 247 246 250
166 162 167 170 179 193 211 222 226 227 229 233 229 232 238 242 247 250 253 256 258 257
179 179 172 185 197 207 215 222 231 236 239 241 244 248 250 253 254 256 257 260 263 265
191 200 200 203 211 215 224 232 243 259 264 267 255 247 242 243 250 255 259 263 267 271
179 196 208 209 213 220 226 233 238 244 249 249 254 260 259 256 257 260 266 270 272 271
157 176 183 187 193 204 217 230 233 238 244 245 250 256 262 267 271 266 259 259 259 261
123 124 125 130 133 146 173 177 206 228 244 254 260 265 266 268 266 264 264 264 265 265
98 97 93 91 91 93 93 93 93 85 66 30 4 352 347 321 276 253 248 256 269 280
86 86 81 81 85 83 80 80 75 71 63 53 52 49 44 53 54 77 33 342 11 31
Wind_Speed_850mb
32 27 32 32 32 32 35 39 38 34 66 72 74 75 70 67 68 79 87 82 76 79
34 33 30 27 29 26 29 36 33 39 44 83 83 77 86 93 88 76 79 83 82 76
34 33 28 22 16 17 20 23 26 28 47 64 76 84 84 90 95 96 86 91 87 79
30 32 29 25 19 14 17 23 29 28 30 34 41 53 78 87 84 95 93 98 100 95
20 28 27 25 25 23 19 21 29 32 32 34 34 48 50 61 70 79 92 98 97 100
17 18 22 21 22 23 23 22 23 28 30 33 36 45 52 56 58 59 60 74 80 86
14 11 16 18 17 16 15 18 20 22 25 28 30 36 42 48 54 60 63 65 70 71
20 18 18 16 17 15 14 13 15 19 22 24 28 34 42 48 52 57 62 67 71 74
18 19 21 23 23 24 25 27 24 24 27 26 35 44 45 49 53 56 61 66 69 72
13 15 20 23 25 27 29 30 31 34 36 38 44 51 53 54 55 58 62 66 69 72
13 10 13 15 16 17 19 23 25 29 31 33 45 55 57 56 54 57 67 74 74 70
16 14 12 12 8 6 5 5 5 7 12 19 24 35 45 48 47 52 58 64 66 71
22 20 19 19 18 19 17 16 14 12 11 8 10 13 13 13 14 21 25 27 31 36
30 28 29 26 25 24 25 23 23 23 24 26 25 23 15 11 5 3 0 4 10 18
Wind_Direction_850mb
194 189 200 207 218 226 222 224 236 206 206 202 197 194 202 210 218 218 222 224 225 230
194 194 195 201 210 223 231 228 221 236 235 217 208 210 206 205 207 214 225 230 230 235
191 193 199 203 205 208 210 214 217 217 217 221 208 214 213 216 216 213 220 227 232 239
190 188 190 199 200 195 205 208 210 213 209 210 216 216 214 220 225 223 226 232 232 239
182 187 188 190 193 204 204 206 212 216 219 219 231 223 224 225 234 234 231 238 242 243
174 181 184 182 194 209 215 210 210 212 217 215 219 225 232 232 239 242 246 247 246 250
166 162 167 170 179 193 211 222 226 227 229 233 229 232 238 242 247 250 253 256 258 257
179 179 172 185 197 207 215 222 231 236 239 241 244 248 250 253 254 256 257 260 263 265
191 200 200 203 211 215 224 232 243 259 264 267 255 247 242 243 250 255 259 263 267 271
179 196 208 209 213 220 226 233 238 244 249 249 254 260 259 256 257 260 266 270 272 271
157 176 183 187 193 204 217 230 233 238 244 245 250 256 262 267 271 266 259 259 259 261
123 124 125 130 133 146 173 177 206 228 244 254 260 265 266 268 266 264 264 264 265 265
98 97 93 91 91 93 93 93 93 85 66 30 4 352 347 321 276 253 248 256 269 280
86 86 81 81 85 83 80 80 75 71 63 53 52 49 44 53 54 77 33 342 11 31